Weather in Aksu

Turkey     36°56′57″N   30°51′04″E
temp.,
°C
wind,
m/s
gust,
m/s
humid.,
%
clouds,
%
prec.,
mm/h
press.,
hPa
HPBL,
m
22 april, thu
thu2200:00+15nw22713 0.0 101871
03:00+14nw11634 0.0 101720
06:00+13nw33435 0.0 101845
09:00+19nw35340 0.0 1019541
12:00+24sw33260 0.0 10191579
15:00+23s54351 0.0 10181020
18:00+21se33435 0.0 1017574
21:00+17nne11615 0.0 101956
23 april, fri
fri2300:00+15nw11604 0.0 101916
03:00+14nnw11485 0.0 101817
06:00+14nnw213767 0.0 101814
09:00+19ene01288 0.0 1019265
12:00+24sse322677 0.0 1019919
15:00+24sse4332100 0.0 1018958
18:00+22s32365 0.0 1017571
21:00+18n114616 0.0 101754
24 april, sat
sat2400:00+18nw224894 0.0 101620
03:00+17nw11455 0.0 101512
06:00+17nw2241100 0.0 101413
09:00+22nw1232100 0.0 1014174
12:00+27sse2123100 0.0 1013842
15:00+27s432711 0.0 1012824
18:00+25ese113399 0.0 1012337
21:00+21wnw2241100 0.0 101225
25 april, sun
sun2500:00+21nnw3341100 0.0 101172
03:00+21nw3542100 0.0 100992
06:00+20wnw3446100 0.0 100878
09:00+23nw4644100 0.0 1009290
12:00+27nne2233100 0.0 1008801
15:00+28s452484 0.0 10061395
18:00+26se123191 0.0 1005390
21:00+21se01415 0.0 100628
26 april, mon
mon2600:00+19nnw365584 0.0 1006172
03:00+18nnw5105877 0.0 1005337
06:00+17nnw6115895 0.0 1005410
09:00+22nnw79435 0.0 10071054
12:00+27nnw56291 0.0 10071839
15:00+30nnw66240 0.0 10052563
18:00+27n672910 0.0 10071725
21:00+20nne23520 0.0 1010208